Weather History for Hollywood, FL

Change the Weather History Date:

Friday, April 19, 2013

  Actual Average (KFLL) Record (KFLL)
Temperature  
Mean Temperature 82 °F 77 °F  
Max Temperature 88 °F 83 °F 90 °F (1972)
Min Temperature 77 °F 70 °F 50 °F (1956)
Degree Days  
Heating Degree Days 0 0  
Month to date heating degree days 0  
Since 1 July heating degree days 111  
Cooling Degree Days 17 12  
Month to date cooling degree days 201  
Year to date cooling degree days 811  
Growing Degree Days 32 (Base 50)    
Moisture  
Dew Point 70 °F    
Average Humidity 68    
Maximum Humidity 79    
Minimum Humidity 49    
Precipitation  
Precipitation 0.00 in 0.10 in 2.27 in (1943)
Month to date precipitation 1.97  
Year to date precipitation 11.92  
Snow  
Snow 0.00 in - - ()
Month to date snowfall  
Since 1 July snowfall  
Snow Depth -    
Sea Level Pressure  
Sea Level Pressure 30.04 in    
Wind  
Wind Speed 12 mph (SE)    
Max Wind Speed 20 mph    
Max Gust Speed 25 mph    
Visibility 10 miles    
Events Rain    
T = Trace of Precipitation, MM = Missing Value Source: NWS Daily Summary

Daily Weather History Graph

Daily Weather History Graph

Search for Another Location

Airport:

Trip Planner

Search our weather history database for the weather conditions in past years. The results will help you decide how hot, cold, wet, or windy it might be!

Date:

Astronomy

Apr. 19, 2013 Rise Set
Actual Time 6:53 AM EDT 7:46 PM EDT
Civil Twilight 6:30 AM EDT 8:10 PM EDT
Nautical Twilight 6:02 AM EDT 8:38 PM EDT
Astronomical Twilight 5:33 AM EDT 9:06 PM EDT
Moon 2:04 PM EDT (4/19) 2:31 AM EDT (4/19)
Length of Visible Light 13h 40m
Length of Day
12h 52m
First Quarter, 61% of the Moon is Illuminated
Apr 19
First Quarter
Apr 25
Full
May 2
Last Quarter
May 9
New
May 18
First Quarter

Hourly Weather History & Observations

Time (EDT) Temp. Heat Index Dew Point Humidity Pressure Visibility Wind Dir Wind Speed Gust Speed Precip Events Conditions
12:53 AM 78.1 °F - 70.0 °F 76% 30.05 in 10.0 mi SE 12.7 mph - N/A   Partly Cloudy
1:53 AM 78.1 °F - 66.9 °F 68% 30.03 in 10.0 mi SE 4.6 mph - N/A   Clear
2:53 AM 79.0 °F - 71.1 °F 77% 30.01 in 10.0 mi SE 11.5 mph - N/A   Mostly Cloudy
3:36 AM 78.8 °F - 69.8 °F 74% 30.02 in 10.0 mi SE 10.4 mph 19.6 mph N/A   Mostly Cloudy
3:53 AM 79.0 °F - 70.0 °F 74% 30.02 in 10.0 mi SE 12.7 mph 19.6 mph N/A   Scattered Clouds
4:53 AM 78.1 °F - 70.0 °F 76% 30.02 in 10.0 mi SE 10.4 mph - N/A   Partly Cloudy
5:53 AM 78.1 °F - 70.0 °F 76% 30.02 in 10.0 mi SE 10.4 mph - N/A   Partly Cloudy
6:53 AM 77.0 °F - 70.0 °F 79% 30.04 in 10.0 mi SE 8.1 mph - N/A   Partly Cloudy
7:53 AM 79.0 °F - 71.1 °F 77% 30.05 in 10.0 mi SE 10.4 mph - N/A   Scattered Clouds
8:53 AM 81.0 °F 84.9 °F 71.1 °F 72% 30.06 in 10.0 mi SE 13.8 mph 25.3 mph N/A   Scattered Clouds
9:53 AM 82.9 °F 87.5 °F 71.1 °F 67% 30.07 in 10.0 mi SE 19.6 mph 25.3 mph N/A   Overcast
10:53 AM 84.0 °F 89.0 °F 71.1 °F 65% 30.07 in 10.0 mi SE 16.1 mph 24.2 mph N/A   Mostly Cloudy
11:53 AM 86.0 °F 90.1 °F 69.1 °F 57% 30.07 in 10.0 mi SE 15.0 mph 24.2 mph N/A   Scattered Clouds
12:53 PM 86.0 °F 90.7 °F 70.0 °F 59% 30.06 in 10.0 mi SSE 15.0 mph 24.2 mph N/A   Scattered Clouds
1:53 PM 84.9 °F 88.8 °F 69.1 °F 59% 30.05 in 10.0 mi SE 15.0 mph 24.2 mph N/A   Mostly Cloudy
2:53 PM 87.1 °F 89.2 °F 66.0 °F 49% 30.03 in 10.0 mi SSE 19.6 mph 25.3 mph N/A   Scattered Clouds
3:53 PM 86.0 °F 88.8 °F 66.9 °F 53% 30.01 in 10.0 mi SE 17.3 mph 25.3 mph N/A   Partly Cloudy
4:53 PM 86.0 °F 88.8 °F 66.9 °F 53% 29.99 in 10.0 mi SSE 19.6 mph 24.2 mph N/A   Clear
5:53 PM 84.0 °F 86.5 °F 66.9 °F 56% 29.99 in 10.0 mi SSE 17.3 mph - N/A   Clear
6:53 PM 82.0 °F 85.5 °F 69.1 °F 65% 30.00 in 10.0 mi SSE 12.7 mph - N/A   Partly Cloudy
7:53 PM 81.0 °F 84.4 °F 70.0 °F 69% 30.00 in 10.0 mi SSE 17.3 mph 21.9 mph N/A   Partly Cloudy
8:53 PM 81.0 °F 84.9 °F 71.1 °F 72% 30.04 in 10.0 mi SE 12.7 mph - N/A   Mostly Cloudy
9:53 PM 80.1 °F 83.8 °F 72.0 °F 76% 30.06 in 10.0 mi SSE 8.1 mph - N/A   Clear
10:53 PM 80.1 °F 84.2 °F 73.0 °F 79% 30.06 in 10.0 mi SE 9.2 mph - 0.00 in Rain Light Rain
11:53 PM 80.1 °F 84.2 °F 73.0 °F 79% 30.06 in 10.0 mi South 9.2 mph - 0.00 in   Mostly Cloudy